Lid_Strength_Index
4 4 4 4 4 4 3 4 3 3 3 3 3 2 2 2 2 2 5 3 2 -2 -1 0 1 1 1 2 2 2 7 8 7 7 6 4 5 4 3 4 4 3 3 2 1
5 5 5 5 4 4 4 4 4 4 3 3 3 3 3 2 3 5 1 -1 -2 -2 1 2 3 2 3 3 3 5 7 7 5 5 5 4 4 4 4 4 4 3 2 2 1
5 5 5 5 5 4 4 4 4 4 4 3 3 3 3 3 5 5 -3 -2 -2 -1 1 1 1 2 4 3 4 4 7 5 6 5 4 5 4 4 4 5 4 4 3 2 2
5 5 5 5 5 5 5 5 5 5 4 4 4 3 3 3 10 2 -2 -2 -1 -0 2 2 2 4 5 5 4 6 4 5 5 5 4 5 4 4 4 4 3 3 3 2 2
4 4 5 5 5 5 5 5 5 5 5 5 4 4 4 7 7 3 -2 -1 2 3 4 4 4 4 5 5 4 5 5 5 5 4 4 4 5 4 5 3 3 3 2 2 2
3 4 4 4 4 5 4 4 5 5 6 5 5 4 6 10 5 4 2 1 2 3 4 3 3 3 4 4 5 4 4 5 5 5 4 6 5 5 4 3 4 3 3 3 2
3 3 3 4 4 4 4 4 4 4 4 4 4 3 6 7 2 3 5 5 4 3 4 3 3 4 4 5 4 4 6 5 5 5 5 4 6 6 3 3 4 3 3 2 2
3 3 3 3 3 4 3 4 4 4 4 3 3 3 7 3 1 3 3 3 2 3 4 3 3 4 4 4 5 6 6 8 5 5 5 5 8 5 3 3 4 3 3 3 2
3 3 3 3 3 3 3 3 3 3 3 3 3 4 7 2 4 3 3 5 5 3 3 3 4 6 5 6 7 6 9 8 7 5 5 6 7 5 3 4 4 3 3 3 3
4 4 4 3 3 3 3 3 3 3 2 1 3 5 4 6 3 3 3 4 5 4 4 5 5 7 6 7 11 9 9 8 8 6 6 6 6 5 4 4 4 4 3 3 3
4 4 4 4 3 3 4 3 5 4 3 6 6 6 5 4 3 3 3 4 4 5 7 6 8 9 7 6 6 7 7 8 7 6 6 7 6 6 4 4 4 4 3 3 3
5 5 4 4 4 3 4 6 5 6 8 3 4 4 4 4 5 5 2 5 6 8 6 6 8 6 5 6 6 7 8 8 7 6 6 7 7 5 5 4 4 4 4 3 3
5 5 5 4 4 4 5 5 3 4 8 7 6 5 5 4 6 5 4 5 7 7 7 8 6 5 6 6 7 7 8 8 8 6 6 7 8 6 5 4 4 3 3 3 3
6 5 5 4 6 4 5 3 4 4 10 9 7 6 5 5 7 4 3 4 6 8 6 6 5 6 6 7 6 9 6 7 7 8 11 6 12 8 6 6 5 4 4 3 3
5 5 5 4 6 5 5 4 4 5 14 6 6 3 5 6 6 6 3 4 7 7 6 7 6 7 7 7 6 7 6 6 7 8 9 8 10 8 6 7 6 5 4 3 3
4 5 4 5 4 4 3 4 5 11 15 8 6 7 7 7 6 5 5 4 4 6 6 6 4 5 6 5 5 5 6 7 7 8 12 9 10 9 8 7 6 5 4 4 3
1 2 4 4 5 3 4 5 12 14 8 9 8 7 7 8 7 6 7 7 8 10 9 7 6 5 5 7 5 6 8 12 13 13 13 8 10 9 6 5 5 5 4 4 3
0 1 2 2 1 3 5 8 14 11 10 7 7 7 8 7 8 7 8 8 6 7 8 10 10 7 5 6 7 7 8 11 15 14 12 8 11 8 5 4 4 4 4 4 3
-0 0 1 1 -1 1 6 14 13 10 8 8 7 9 8 7 7 7 8 8 7 6 9 9 9 6 5 5 6 7 9 7 10 9 11 10 8 6 5 5 5 5 5 4 3
2 3 3 -0 -2 2 9 13 10 8 7 6 9 8 9 8 8 8 8 7 7 6 5 7 10 6 6 5 5 6 6 10 9 14 15 11 10 9 7 6 5 5 5 4 3
3 6 1 -1 -0 6 12 11 9 7 6 9 8 8 8 8 8 8 8 6 6 6 5 6 7 8 6 8 8 7 8 8 8 9 13 14 11 6 6 6 5 5 5 4 4
4 8 0 -0 8 8 11 8 7 8 6 7 8 9 8 7 8 8 8 6 5 5 7 6 7 10 8 6 5 6 7 7 11 12 10 10 11 5 5 5 4 5 4 4 3
5 5 1 1 11 10 7 7 6 7 7 8 9 8 7 8 10 7 7 5 5 5 6 6 8 11 10 8 6 8 7 7 7 8 11 12 11 5 5 5 4 4 4 4 3
5 9 5 4 5 8 9 9 8 5 6 7 8 8 9 9 7 8 7 6 5 5 5 6 7 10 12 10 8 9 8 7 8 11 10 10 9 7 6 5 4 4 4 4 3
3 7 5 11 9 8 8 8 9 9 6 6 8 9 9 10 8 8 7 6 5 5 5 6 10 8 8 7 7 8 8 8 8 8 10 9 8 7 5 5 4 4 4 4 4
6 6 4 7 6 8 8 9 9 8 7 8 8 8 9 9 8 10 8 7 7 6 6 6 10 8 9 7 7 9 8 7 8 8 8 8 8 5 4 4 4 4 4 4 4
1 1 5 8 9 9 9 8 8 7 6 6 6 8 10 8 7 7 6 6 6 6 6 7 9 10 11 8 8 10 8 8 7 7 7 9 7 5 5 5 4 4 4 4 4